Springfield, MO

12:11 PM CST on December 15, 2017 (GMT -0600)
Springfield-Branson Regional

Weather History for KSGF - January, 2011

Change the Weather History Date:

Tuesday, January 4, 2011

  Actual Average Record
Temperature  
Mean Temperature 32 °F 32 °F  
Max Temperature 41 °F 42 °F 68 °F (1888)
Min Temperature 22 °F 23 °F -7 °F (1959)
Degree Days  
Heating Degree Days 33 33  
Month to date heating degree days 143 129  
Since 1 July heating degree days 1919 1939  
Cooling Degree Days 0 0  
Month to date cooling degree days 0 0  
Year to date cooling degree days 0 0  
Moisture  
Dew Point 17 °F    
Average Humidity 63    
Maximum Humidity 92    
Minimum Humidity 34    
Precipitation  
Precipitation 0.00 in 0.09 in 1.93 in (2005)
Month to date precipitation 0.00 0.35  
Year to date precipitation 0.00 0.35  
Snow  
Snow 0.00 in - - ()
Month to date snowfall 0.0  
Since 1 July snowfall 1.0  
Snow Depth 0.00 in    
Sea Level Pressure  
Sea Level Pressure 30.13 in    
Wind  
Wind Speed 6 mph (NNE)    
Max Wind Speed 10 mph    
Max Gust Speed 13 mph    
Visibility 10 miles    
Events      
T = Trace of Precipitation, MM = Missing Value Source: NWS Daily Summary

Daily Weather History Graph

Daily Weather History Graph

Search for Another Location

Airport or City:

Trip Planner

Search our weather history database for the weather conditions in past years. The results will help you decide how hot, cold, wet, or windy it might be!

Date:

Astronomy

Jan. 04, 2011 Rise Set
Actual Time 7:27 AM CST 5:09 PM CST
Civil Twilight 6:58 AM CST 5:38 PM CST
Nautical Twilight 6:26 AM CST 6:10 PM CST
Astronomical Twilight 5:54 AM CST 6:42 PM CST
Moon 7:37 AM CST (1/4) 5:43 PM CST (1/4)
Length of Visible Light 10h 39m
Length of Day
9h 41m
New Moon, 0% of the Moon is Illuminated
Jan 4
New Moon
Jan 12
First Quarter
Jan 19
Full
Jan 26
Last Quarter
Feb 2
New

Hourly Weather History & Observations

Time (CST) Temp. Windchill Dew Point Humidity Pressure Visibility Wind Dir Wind Speed Gust Speed Precip Events Conditions
12:52 AM 28.0 °F 22.8 °F 21.9 °F 78% 30.09 in 10.0 mi NNW 4.6 mph - N/A   Clear
1:52 AM 23.0 °F - 18.0 °F 81% 30.10 in 10.0 mi Calm Calm - N/A   Clear
2:52 AM 26.1 °F 20.5 °F 19.9 °F 78% 30.10 in 10.0 mi NW 4.6 mph - N/A   Clear
3:52 AM 23.0 °F 15.8 °F 19.0 °F 85% 30.11 in 10.0 mi NW 5.8 mph - N/A   Clear
4:52 AM 25.0 °F 18.1 °F 19.0 °F 78% 30.13 in 10.0 mi NNW 5.8 mph - N/A   Clear
5:52 AM 24.1 °F 15.2 °F 19.9 °F 84% 30.15 in 10.0 mi NNW 8.1 mph - N/A   Clear
6:52 AM 23.0 °F 15.8 °F 19.0 °F 85% 30.18 in 10.0 mi NNW 5.8 mph - N/A   Clear
7:52 AM 21.9 °F 14.5 °F 19.0 °F 89% 30.18 in 10.0 mi North 5.8 mph - N/A   Clear
8:52 AM 28.0 °F 22.8 °F 21.0 °F 75% 30.19 in 10.0 mi NNE 4.6 mph - N/A   Clear
9:52 AM 30.9 °F 23.5 °F 19.0 °F 61% 30.22 in 10.0 mi NNE 8.1 mph - N/A   Clear
10:52 AM 35.1 °F 32.2 °F 18.0 °F 50% 30.23 in 10.0 mi North 3.5 mph - N/A   Clear
11:52 AM 36.0 °F 29.6 °F 12.9 °F 39% 30.20 in 10.0 mi North 8.1 mph - N/A   Clear
12:52 PM 37.9 °F 34.4 °F 14.0 °F 38% 30.17 in 10.0 mi NNW 4.6 mph - N/A   Clear
1:52 PM 39.9 °F 35.1 °F 15.1 °F 36% 30.15 in 10.0 mi NNW 6.9 mph - N/A   Clear
2:52 PM 39.9 °F 36.7 °F 14.0 °F 35% 30.13 in 10.0 mi NNW 4.6 mph - N/A   Clear
3:52 PM 39.9 °F 37.8 °F 14.0 °F 35% 30.12 in 10.0 mi NNW 3.5 mph - N/A   Clear
4:52 PM 37.0 °F 32.4 °F 14.0 °F 39% 30.12 in 10.0 mi NE 5.8 mph - N/A   Clear
5:52 PM 33.1 °F 26.9 °F 14.0 °F 46% 30.11 in 10.0 mi NE 6.9 mph - N/A   Clear
6:52 PM 27.0 °F 21.6 °F 14.0 °F 58% 30.12 in 10.0 mi East 4.6 mph - N/A   Clear
7:52 PM 27.0 °F 21.6 °F 12.9 °F 56% 30.10 in 10.0 mi ESE 4.6 mph - N/A   Clear
8:52 PM 28.9 °F 22.8 °F 12.9 °F 51% 30.07 in 10.0 mi East 5.8 mph - N/A   Clear
9:52 PM 24.1 °F 16.0 °F 14.0 °F 65% 30.06 in 10.0 mi SE 6.9 mph - N/A   Partly Cloudy
10:52 PM 30.9 °F 24.3 °F 18.0 °F 59% 30.04 in 10.0 mi ESE 6.9 mph - N/A   Overcast
11:52 PM 34.0 °F 26.6 °F 15.1 °F 46% 30.02 in 10.0 mi SE 9.2 mph - N/A   Overcast